Location: Newark
(11.2914°S, 14.4718°E)
Time: 11:01:17
(UTC+00:00)

Tiros 1 despin weight - Pass Details

Date: 25 September 2019
Orbit: 593 x 643 km, 48.2° (Epoch: 22 October)

Event Time Altitude Azimuth Distance (km) Brightness Sun altitude
Rises 06:45:32 0° 247° (WSW) 2,946 ? 27.5°
Reaches altitude 10° 06:48:36 10° 267° (W) 2,031 ? 28.2°
Maximum altitude 06:51:36 17° 307° (NW) 1,618 ? 29.0°
Drops below altitude 10° 06:54:35 10° 347° (NNW) 2,014 ? 29.7°
Sets 06:57:37 0° 8° (N) 2,910 ? 30.4°
